Satellite: ISS
Catalog number: 25544
Epoch time:      08290.50497133
Element set:     452
Inclination:      051.6419 deg
RA of node:       114.3833 deg
Eccentricity:    0.0003459
Arg of perigee:   227.5088 deg
Mean anomaly:     172.1737 deg
Mean motion:   15.72293287 rev/day
Decay rate:     1.4617e-04 rev/day^2
Epoch rev:           56762
Checksum:              310

Satellite: CO-58
Catalog number: 28895
Epoch time:      08290.65688693
Element set:     145
Inclination:      098.0829 deg
RA of node:       181.6967 deg
Eccentricity:    0.0018652
Arg of perigee:   032.5673 deg
Mean anomaly:     327.6667 deg
Mean motion:   14.59704628 rev/day
Decay rate:        8.6e-07 rev/day^2
Epoch rev:           15820
Checksum:              371

Satellite: FALCON
Catalog number: 30776
Epoch time:      08289.93839820
Element set:    0441
Inclination:      035.4331 deg
RA of node:       141.1217 deg
Eccentricity:    0.0001988
Arg of perigee:   314.1552 deg
Mean anomaly:     045.9001 deg
Mean motion:   15.03074367 rev/day
Decay rate:       4.70e-06 rev/day^2
Epoch rev:           08832
Checksum:              280

Satellite: MAST
Catalog number: 31126
Epoch time:      08290.54265192
Element set:     438
Inclination:      098.0256 deg
RA of node:       350.0398 deg
Eccentricity:    0.0094112
Arg of perigee:   316.3384 deg
Mean anomaly:     043.0574 deg
Mean motion:   14.53451028 rev/day
Decay rate:       1.27e-06 rev/day^2
Epoch rev:            7964
Checksum:              285

Satellite: CAPE1
Catalog number: 31130
Epoch time:      08289.85696937
Element set:     430
Inclination:      098.0277 deg
RA of node:       348.1184 deg
Eccentricity:    0.0101861
Arg of perigee:   322.3831 deg
Mean anomaly:     037.0228 deg
Mean motion:   14.51997581 rev/day
Decay rate:        4.9e-07 rev/day^2
Epoch rev:            7923
Checksum:              313

Satellite: COMPASS
Catalog number: 32787
Epoch time:      08290.69455113
Element set:     175
Inclination:      097.9759 deg
RA of node:       350.1544 deg
Eccentricity:    0.0017020
Arg of perigee:   102.3344 deg
Mean anomaly:     257.9764 deg
Mean motion:   14.81477730 rev/day
Decay rate:       4.55e-06 rev/day^2
Epoch rev:            2539
Checksum:              312

Satellite: AAUSAT2
Catalog number: 32788
Epoch time:      08289.60130194
Element set:    0174
Inclination:      097.9771 deg
RA of node:       349.0887 deg
Eccentricity:    0.0016692
Arg of perigee:   106.2494 deg
Mean anomaly:     254.0566 deg
Mean motion:   14.81588242 rev/day
Decay rate:       3.13e-06 rev/day^2
Epoch rev:           02523
Checksum:              321

Satellite: DO-64
Catalog number: 32789
Epoch time:      08289.88453168
Element set:    0190
Inclination:      097.9789 deg
RA of node:       349.4129 deg
Eccentricity:    0.0016907
Arg of perigee:   104.4827 deg
Mean anomaly:     255.8248 deg
Mean motion:   14.81498848 rev/day
Decay rate:       6.87e-06 rev/day^2
Epoch rev:           02527
Checksum:              385

Satellite: CO-66
Catalog number: 32791
Epoch time:      08289.22500796
Element set:    0170
Inclination:      097.9792 deg
RA of node:       348.7132 deg
Eccentricity:    0.0017345
Arg of perigee:   104.0749 deg
Mean anomaly:     256.2386 deg
Mean motion:   14.81327896 rev/day
Decay rate:       4.33e-06 rev/day^2
Epoch rev:           02514
Checksum:              329

Satellite: RS-30
Catalog number: 32953
Epoch time:      08289.74233627
Element set:     133
Inclination:      082.5017 deg
RA of node:       048.6095 deg
Eccentricity:    0.0018746
Arg of perigee:   355.1151 deg
Mean anomaly:     004.9746 deg
Mean motion:   12.42997940 rev/day
Decay rate:        1.0e-07 rev/day^2
Epoch rev:            1802
Checksum:              295

/EX




_______________________________________________
Via the Keps mailing list courtesy of AMSAT-NA
http://amsat.org/mailman/listinfo/keps

--- ViaMAIL!/WC v1.60d
 * Origin: Chowdanet (401-724-4410) telnet://chowdanet.com  (1:323/120)